Stations météo

réclame
Mon MeteoGroup
Asturias/Aviles, Espagne (8011): Température de l'air & dewpoint: 18.05.2019 05:00:00 - 24.05.2019 05:00:00 (CEST)Asturias/Aviles, Espagne (8011): Vitesse du vent: 18.05.2019 05:00:00 - 24.05.2019 05:00:00 (CEST)Asturias/Aviles, Espagne (8011): Direction du vent: 18.05.2019 05:00:00 - 24.05.2019 05:00:00 (CEST)Asturias/Aviles, Espagne (8011): reduced air pressure: 18.05.2019 05:00:00 - 24.05.2019 05:00:00 (CEST)Asturias/Aviles, Espagne (8011): visibility: 18.05.2019 05:00:00 - 24.05.2019 05:00:00 (CEST)
Date & Time tt [°C] td [°C] ff [km/h] ff [knt] dd ppp [hPa] vv [km]
24.05.2019 05:00:00 - - - - - - -
24.05.2019 04:00:00 12,6 10,5 11 6 W 1021,9 -
24.05.2019 03:00:00 12,5 10,7 15 8 W 1022,1 -
24.05.2019 02:00:00 13,0 11,1 16 9 W 1022,4 15
24.05.2019 01:00:00 13,2 10,2 13 7 W 1022,7 -
24.05.2019 00:00:00 13,4 9,9 13 7 W 1022,8 -
23.05.2019 23:00:00 13,5 9,7 16 9 W 1022,5 20
23.05.2019 22:00:00 13,5 9,9 16 9 W 1022,3 -
23.05.2019 21:00:00 13,6 10,7 28 15 WNW 1022,3 -
23.05.2019 20:00:00 13,8 11,0 28 15 WNW 1021,7 10
23.05.2019 19:00:00 14,1 11,3 26 14 WNW 1021,5 -
23.05.2019 18:00:00 15,1 11,5 24 13 WNW 1020,8 -
23.05.2019 17:00:00 16,5 13,2 15 8 WNW 1020,0 -
23.05.2019 16:00:00 15,5 13,0 11 6 NW 1020,1 -
23.05.2019 15:00:00 15,4 13,3 13 7 NNW 1020,1 -
23.05.2019 14:00:00 17,9 12,1 11 6 WNW 1019,5 30
23.05.2019 13:00:00 17,4 11,1 9 5 NW 1019,7 -
23.05.2019 12:00:00 17,8 12,3 9 5 NNW 1019,7 -
23.05.2019 11:00:00 17,0 11,9 8 4 ESE 1019,6 20
23.05.2019 10:00:00 15,8 11,2 8 4 WSW 1019,4 -
23.05.2019 09:00:00 13,8 11,4 5 3 SW 1019,2 -
23.05.2019 08:00:00 13,3 11,9 9 5 W 1019,0 10
23.05.2019 07:00:00 12,9 11,8 11 6 WNW 1018,6 -
23.05.2019 06:00:00 12,9 12,1 9 5 WNW 1018,2 -
23.05.2019 05:00:00 13,5 11,5 13 7 NW 1018,0 -
23.05.2019 04:00:00 13,8 10,0 15 8 WNW 1017,7 -
23.05.2019 03:00:00 14,0 10,2 9 5 NW 1017,8 -
23.05.2019 02:00:00 14,2 11,3 11 6 WNW 1018,2 15
23.05.2019 01:00:00 14,4 11,9 9 5 WNW 1018,3 -
23.05.2019 00:00:00 15,0 12,9 9 5 WNW 1018,4 -
22.05.2019 23:00:00 15,0 13,3 0 0 N 1018,2 12
22.05.2019 22:00:00 16,1 13,4 4 2 ESE 1017,6 -
22.05.2019 21:00:00 18,5 14,2 5 3 ESE 1017,1 -
22.05.2019 20:00:00 19,6 13,8 5 3 E 1017,0 15
22.05.2019 19:00:00 19,2 12,9 8 4 E 1017,1 -
22.05.2019 18:00:00 19,6 13,6 8 4 ENE 1017,1 -
22.05.2019 17:00:00 18,9 13,3 9 5 E 1017,3 15
22.05.2019 16:00:00 18,6 12,8 11 6 E 1017,3 -
22.05.2019 15:00:00 18,0 12,7 15 8 E 1017,7 -
22.05.2019 14:00:00 18,1 13,5 13 7 ENE 1017,7 12
22.05.2019 13:00:00 17,8 12,9 13 7 E 1018,0 -
22.05.2019 12:00:00 17,2 12,6 8 4 E 1018,1 -
22.05.2019 11:00:00 16,3 11,9 8 4 SE 1018,3 9
22.05.2019 10:00:00 14,1 12,1 11 6 E 1018,4 -
22.05.2019 09:00:00 12,3 11,4 11 6 ESE 1018,5 -
22.05.2019 08:00:00 11,6 11,1 11 6 ESE 1018,7 5
22.05.2019 07:00:00 11,0 10,6 11 6 SE 1018,7 -
22.05.2019 06:00:00 10,6 10,3 11 6 ESE 1018,9 -
22.05.2019 05:00:00 8,6 8,3 11 6 SE 1019,4 -
22.05.2019 04:00:00 9,5 9,2 9 5 SSE 1019,7 -
22.05.2019 03:00:00 9,3 8,8 8 4 SSE 1019,9 -
22.05.2019 02:00:00 9,5 8,9 11 6 SE 1019,9 15
22.05.2019 01:00:00 10,5 9,9 15 8 ESE 1020,0 -
22.05.2019 00:00:00 11,2 10,4 16 9 SE 1020,2 -
21.05.2019 23:00:00 12,2 10,9 16 9 ESE 1020,1 15
21.05.2019 22:00:00 12,8 11,0 21 11 ESE 1019,7 -
21.05.2019 21:00:00 14,0 11,1 18 10 ESE 1019,3 -
21.05.2019 20:00:00 15,0 11,2 15 8 ESE 1018,9 25
21.05.2019 19:00:00 16,0 11,8 22 12 ESE 1018,7 -
21.05.2019 18:00:00 16,2 11,5 18 10 ESE 1018,7 -
21.05.2019 17:00:00 16,6 11,7 15 8 E 1018,8 25
21.05.2019 16:00:00 16,5 11,2 16 9 E 1018,8 -
21.05.2019 15:00:00 16,5 11,4 18 10 E 1018,8 -
21.05.2019 14:00:00 16,6 11,1 15 8 E 1018,7 20
21.05.2019 13:00:00 16,1 11,4 16 9 E 1018,9 -
21.05.2019 12:00:00 16,5 10,9 16 9 E 1018,5 -
21.05.2019 11:00:00 16,1 11,0 15 8 ESE 1018,3 10
21.05.2019 10:00:00 14,3 10,9 11 6 ESE 1018,3 -
21.05.2019 09:00:00 11,8 10,0 8 4 SW 1018,0 -
21.05.2019 08:00:00 9,6 9,1 5 3 SE 1018,1 8
21.05.2019 07:00:00 8,4 7,8 9 5 SE 1017,7 -
21.05.2019 06:00:00 9,2 8,4 0 0 N 1017,4 -
21.05.2019 05:00:00 9,1 8,3 8 4 S 1017,2 -
21.05.2019 04:00:00 9,2 8,4 5 3 SW 1016,9 -
21.05.2019 03:00:00 9,2 8,5 4 2 SSW 1017,0 -
21.05.2019 02:00:00 9,0 8,2 9 5 SSE 1017,3 10
21.05.2019 01:00:00 9,3 8,2 8 4 SE 1017,5 -
21.05.2019 00:00:00 9,2 8,1 9 5 SE 1017,6 -
20.05.2019 23:00:00 11,2 9,2 15 8 ESE 1017,2 10
20.05.2019 22:00:00 11,7 9,2 15 8 ESE 1016,5 -
20.05.2019 21:00:00 13,4 9,4 16 9 ESE 1016,0 -
20.05.2019 20:00:00 14,0 9,1 11 6 E 1015,9 10
20.05.2019 19:00:00 14,5 9,9 8 4 E 1015,9 -
20.05.2019 18:00:00 14,7 9,5 9 5 NE 1015,9 -
20.05.2019 17:00:00 14,7 8,7 9 5 E 1016,0 10
20.05.2019 16:00:00 15,3 10,7 9 5 E 1016,1 -
20.05.2019 15:00:00 13,8 9,6 8 4 NNE 1016,3 -
20.05.2019 14:00:00 13,7 8,9 11 6 NNE 1016,3 25
20.05.2019 13:00:00 14,0 9,4 11 6 NNE 1016,4 -
20.05.2019 12:00:00 12,9 9,3 8 4 N 1016,4 -
20.05.2019 11:00:00 12,2 9,0 4 2 WNW 1016,6 20
20.05.2019 10:00:00 11,5 8,9 9 5 SSW 1016,4 -
20.05.2019 09:00:00 9,6 7,9 11 6 SSW 1016,3 -
20.05.2019 08:00:00 8,1 7,2 13 7 SW 1015,9 15
20.05.2019 07:00:00 7,2 6,6 11 6 SW 1015,7 -
20.05.2019 06:00:00 7,5 6,9 13 7 SW 1015,6 -
20.05.2019 05:00:00 7,9 7,1 11 6 SW 1015,8 -
20.05.2019 04:00:00 8,6 7,5 11 6 SW 1016,1 -
20.05.2019 03:00:00 9,1 7,9 9 5 SW 1016,6 -
20.05.2019 02:00:00 9,5 8,3 8 4 SW 1017,1 -
20.05.2019 01:00:00 9,7 8,6 9 5 SSW 1017,4 -
20.05.2019 00:00:00 9,4 8,4 8 4 WSW 1017,5 -
19.05.2019 23:00:00 10,3 8,9 0 0 N 1017,4 25
19.05.2019 22:00:00 11,2 8,9 8 4 NE 1016,8 -
19.05.2019 21:00:00 13,1 9,5 8 4 NW 1016,6 -
19.05.2019 20:00:00 13,8 10,2 13 7 WNW 1016,2 25
19.05.2019 19:00:00 13,4 10,7 11 6 WNW 1016,2 -
19.05.2019 18:00:00 14,2 11,1 16 9 WNW 1016,3 -
19.05.2019 17:00:00 14,2 10,3 15 8 WNW 1016,5 30
19.05.2019 16:00:00 14,2 10,1 11 6 WNW 1016,8 -
19.05.2019 15:00:00 14,3 9,7 22 12 WNW 1016,7 -
19.05.2019 14:00:00 13,9 9,3 21 11 WNW 1016,7 25
19.05.2019 13:00:00 13,6 8,2 18 10 WNW 1016,6 -
19.05.2019 12:00:00 13,3 7,3 21 11 WNW 1016,2 -
19.05.2019 11:00:00 12,9 8,0 24 13 WNW 1016,1 25
19.05.2019 10:00:00 12,4 7,5 21 11 WNW 1015,8 -
19.05.2019 09:00:00 10,8 7,8 13 7 WSW 1015,4 -
19.05.2019 08:00:00 9,5 7,3 13 7 WSW 1015,4 15
19.05.2019 07:00:00 9,6 7,4 15 8 WSW 1015,3 -
19.05.2019 06:00:00 9,1 7,0 13 7 WSW 1015,5 -
19.05.2019 05:00:00 9,5 7,4 13 7 WSW 1015,4 -
19.05.2019 04:00:00 9,3 7,6 11 6 WSW 1015,6 -
19.05.2019 03:00:00 10,3 7,9 16 9 W 1015,5 -
19.05.2019 02:00:00 10,5 8,3 21 11 W 1015,7 -
19.05.2019 01:00:00 10,6 8,3 16 9 W 1015,9 -
19.05.2019 00:00:00 10,8 8,6 21 11 W 1016,0 -
18.05.2019 23:00:00 10,6 8,5 22 12 W 1016,0 8
18.05.2019 22:00:00 10,4 8,9 22 12 W 1015,9 -
18.05.2019 21:00:00 11,0 8,9 22 12 W 1015,5 -
18.05.2019 20:00:00 11,8 8,8 29 16 WNW 1014,9 20
18.05.2019 19:00:00 12,9 9,9 35 19 WNW 1014,6 -
18.05.2019 18:00:00 12,7 8,9 28 15 WNW 1014,2 -
18.05.2019 17:00:00 12,3 9,5 26 14 WNW 1014,1 20
18.05.2019 16:00:00 12,1 8,4 34 18 W 1014,3 -
18.05.2019 15:00:00 12,8 9,9 37 20 W 1013,9 -
18.05.2019 14:00:00 10,0 8,7 26 14 W 1014,2 4,0
18.05.2019 13:00:00 10,7 8,6 26 14 W 1013,8 -
18.05.2019 12:00:00 10,0 8,0 16 9 W 1013,7 -
18.05.2019 11:00:00 12,0 7,1 26 14 W 1012,9 10
18.05.2019 10:00:00 11,4 7,8 29 16 W 1012,8 -
18.05.2019 09:00:00 10,2 7,4 34 18 W 1012,5 -
18.05.2019 08:00:00 9,8 7,7 28 15 W 1012,3 9
18.05.2019 07:00:00 9,3 7,2 16 9 W 1012,3 -
18.05.2019 06:00:00 9,6 7,1 22 12 W 1012,3 -
18.05.2019 05:00:00 8,9 7,4 18 10 WSW 1012,7 -

tt = Température de l'air
td = dewpoint
ff = Vitesse du vent
dd = Direction du vent
ppp = reduced air pressure
vv = visibility

stations d'obs. à proximité